User: anonymous   Login
Location: D�derode
(51.8092°N, 10.1065°E)
Time: 06:44:37
(UTC+00:00)
Language:

Cosmos 1980 - Orbit

View from above orbital plane
View from above orbital plane
View from above satellite
View from above satellite

Ground track
Ground track

The orbit data is extracted from the following two-line orbital elements,

1 19649U 88102A   21057.85469857 -.00000272  00000-0 -11656-3 0  9990
2 19649  70.9997 110.8347 0003422  38.6683 321.4684 14.14725732665596
Epoch (UTC): 26 February 2021 20:30:45
Eccentricity: 0.0003422
inclination: 70.9997°
perigee height: 841 km
apogee height: 846 km
right ascension of ascending node: 110.8347°
argument of perigee: 38.6683°
revolutions per day: 14.14725732
mean anomaly at epoch: 321.4684°
orbit number at epoch: 66559

The dashed part of the orbit path shows where the satellite is in the earth's shadow,  

DLR